千帆星座-33 (QIANFAN-33)

导读

QIANFAN-33 是中国“北斗”卫星导航系统的重要组成部分,于2024年成功发射。该卫星主要用于提供高精度定位、导航和授时服务,增强北斗系统在全球范围内的覆盖与稳定性。QIANFAN-33 采用先进技术和自主知识产权,提升了系统的抗干扰能力和多模态兼容性,为交通运输、应急救援、农业、通信等多个领域提供关键支持,进一步推动中国在卫星导航领域的自主创新能力与国际竞争力。

Basic Information
目录编号:
61566
目录名称:
QIANFAN-33
国际标识:
2024-185Q
轨道中心:
EARTH
卫星名称:
千帆星座-33
卫星全名:
千帆星座-33 (QIANFAN-33)
卫星状态:
在轨 (已飞行651 天)
发射日期:
2024-10-15 UTC
国别 :
中国 (CN)
星等 :
--
Orbit Information
数据来源 国际轨道数据 AOE轨道数据
星历时间 2026-07-27T22:06:33+0800
13小时前
查看轨道信息
2026-07-28T02:00:00+0800
9小时前
查看轨道信息
半长轴 7283.293km 7283.304km
偏心率 0.0007221 0.0007122
轨道倾角 88.978° 88.980°
近地点辐角 355.358° 353.806°
升交点赤经 53.518° 53.501°
平近点角 4.753° 100.930°
近地点 899.896km 899.979km
远地点 910.416km 910.355km
周期 103.098分钟 103.098分钟
每日圈数 13.967256 13.967227
Detailed Information
卫星平台:
33
覆盖范围:
全球
运营商:
上海垣信卫星科技有限公司
运营商所在国:
中国
使用方式:
暂无
Satellite Introduction
千帆星座,也被称为“G60星链”计划,是中国版“星链”的重要组成部分,旨在打造一个由1.4万多颗低轨宽频多媒体卫星构成的庞大星座。千帆星座计划由上海垣信卫星科技有限公司负责实施,于2023年启动建设。该项目是我国第二个低轨卫星大星座,旨在通过构建庞大的卫星网络,为全球用户提供高质量的通信和宽带互联网服务。
2D Orbit Map
3D Orbit Map
Orbit Altitude Analysis Chart
Orbit Inclination Analysis Chart
Orbit Comprehensive Analysis Chart
View Comprehensive Chart